Piney Island, NC

5:22 AM EDT on June 29, 2017 (GMT -0400)
Piney Island

Weather History for KNBT - August, 2014

Change the Weather History Date:

Sunday, August 24, 2014

  Actual Average (KMRH) Record (KMRH)
Temperature  
Mean Temperature 78 °F -  
Max Temperature 82 °F 86 °F 95 °F (1968)
Min Temperature 73 °F 69 °F 59 °F (1985)
Cooling Degree Days 14    
Growing Degree Days 28 (Base 50)    
Moisture  
Dew Point 69 °F    
Average Humidity 72    
Maximum Humidity 81    
Minimum Humidity 58    
Precipitation  
Precipitation 0.00 in - - ()
Sea Level Pressure  
Sea Level Pressure 29.97 in    
Wind  
Wind Speed 18 mph (NE)    
Max Wind Speed 23 mph    
Max Gust Speed 32 mph    
Visibility 10 miles    
Events Rain    
Averages and records for this station are not official NWS values.
T = Trace of Precipitation, MM = Missing Value Source: NWS Daily Summary

Daily Weather History Graph

Daily Weather History Graph

Search for Another Location

Airport or City:

Trip Planner

Search our weather history database for the weather conditions in past years. The results will help you decide how hot, cold, wet, or windy it might be!

Date:

Astronomy

Aug. 24, 2014 Rise Set
Actual Time 6:32 AM EDT 7:43 PM EDT
Civil Twilight 6:06 AM EDT 8:09 PM EDT
Nautical Twilight 5:35 AM EDT 8:40 PM EDT
Astronomical Twilight 5:02 AM EDT 9:12 PM EDT
Moon 5:41 AM EDT (8/24) 7:01 PM EDT (8/24)
Length of Visible Light 14h 03m
Length of Day
13h 10m
Waning Crescent, 1% of the Moon is Illuminated
Aug 24
Waning Crescent
Aug 25
New
Sep 2
First Quarter
Sep 8
Full
Sep 15
Last Quarter

Hourly Weather History & Observations

Time (EDT) Temp. Heat Index Dew Point Humidity Pressure Visibility Wind Dir Wind Speed Gust Speed Precip Events Conditions
12:56 AM 80.1 °F 83.8 °F 72.0 °F 76% 29.95 in 10.0 mi NE 15.0 mph - N/A   Mostly Cloudy
1:56 AM 80.1 °F 83.8 °F 72.0 °F 76% 29.94 in 10.0 mi NE 17.3 mph - N/A   Partly Cloudy
2:44 AM 79.0 °F - 71.1 °F 77% 29.92 in 10.0 mi NNE 15.0 mph 24.2 mph N/A   Mostly Cloudy
2:56 AM 79.0 °F - 72.0 °F 79% 29.93 in 10.0 mi NE 18.4 mph 24.2 mph N/A   Mostly Cloudy
3:29 AM 78.1 °F - 71.1 °F 79% 29.91 in 10.0 mi NNE 20.7 mph 27.6 mph N/A   Mostly Cloudy
3:43 AM 78.1 °F - 71.1 °F 79% 29.91 in 10.0 mi NNE 15.0 mph 23.0 mph N/A   Mostly Cloudy
3:56 AM 78.1 °F - 71.1 °F 79% 29.93 in 10.0 mi NNE 18.4 mph 25.3 mph N/A   Partly Cloudy
4:56 AM 78.1 °F - 71.1 °F 79% 29.93 in 10.0 mi NE 18.4 mph 27.6 mph N/A   Mostly Cloudy
5:13 AM 78.1 °F - 71.1 °F 79% 29.91 in 10.0 mi NE 20.7 mph 32.2 mph N/A   Mostly Cloudy
5:34 AM 79.0 °F - 70.0 °F 74% 29.91 in 10.0 mi NE 17.3 mph 28.8 mph N/A   Scattered Clouds
5:56 AM 78.1 °F - 72.0 °F 81% 29.94 in 10.0 mi NNE 17.3 mph 24.2 mph N/A   Mostly Cloudy
6:05 AM 78.1 °F - 71.1 °F 79% 29.92 in 10.0 mi NNE 16.1 mph 28.8 mph N/A   Mostly Cloudy
6:48 AM 78.1 °F - 71.1 °F 79% 29.93 in 10.0 mi NNE 18.4 mph 26.5 mph N/A   Mostly Cloudy
6:56 AM 78.1 °F - 71.1 °F 79% 29.95 in 10.0 mi NNE 15.0 mph 24.2 mph N/A   Scattered Clouds
7:36 AM 79.0 °F - 70.0 °F 74% 29.95 in 10.0 mi NE 18.4 mph 28.8 mph N/A   Mostly Cloudy
7:56 AM 79.0 °F - 71.1 °F 77% 29.96 in 10.0 mi NE 19.6 mph 26.5 mph N/A   Mostly Cloudy
8:13 AM 80.1 °F 83.2 °F 70.0 °F 71% 29.95 in 10.0 mi NE 19.6 mph 28.8 mph N/A   Mostly Cloudy
8:56 AM 80.1 °F 83.2 °F 70.0 °F 71% 29.97 in 10.0 mi NE 18.4 mph 27.6 mph N/A   Mostly Cloudy
9:26 AM 81.0 °F 84.4 °F 70.0 °F 69% 29.96 in 10.0 mi NE 21.9 mph 29.9 mph N/A   Mostly Cloudy
9:46 AM 81.0 °F 84.1 °F 69.1 °F 67% 29.97 in 10.0 mi NE 20.7 mph 31.1 mph N/A   Mostly Cloudy
9:56 AM 80.1 °F 82.9 °F 69.1 °F 69% 29.99 in 10.0 mi NE 23.0 mph 29.9 mph N/A   Scattered Clouds
10:56 AM 81.0 °F 83.3 °F 66.9 °F 62% 30.01 in 10.0 mi NE 21.9 mph 29.9 mph N/A   Scattered Clouds
11:56 AM 81.0 °F 83.3 °F 66.9 °F 62% 30.02 in 10.0 mi NE 23.0 mph 31.1 mph N/A   Partly Cloudy
12:56 PM 82.0 °F 84.5 °F 66.9 °F 60% 30.01 in 10.0 mi NE 20.7 mph 26.5 mph N/A   Clear
1:56 PM 82.0 °F 84.1 °F 66.0 °F 58% 30.01 in 10.0 mi NNE 19.6 mph 29.9 mph N/A   Scattered Clouds
2:56 PM 80.1 °F 82.1 °F 66.0 °F 62% 30.01 in 10.0 mi NNE 16.1 mph 27.6 mph N/A   Mostly Cloudy
3:56 PM 80.1 °F 82.3 °F 66.9 °F 64% 30.01 in 10.0 mi NE 13.8 mph 24.2 mph N/A   Overcast
4:56 PM 78.1 °F - 66.0 °F 66% 30.02 in 10.0 mi NNE 17.3 mph 26.5 mph N/A Rain Light Rain
5:56 PM 78.1 °F - 64.0 °F 62% 30.01 in 10.0 mi NNE 16.1 mph 25.3 mph N/A   Mostly Cloudy
6:56 PM 78.1 °F - 64.0 °F 62% 30.01 in 10.0 mi NNE 17.3 mph 24.2 mph N/A   Clear
7:56 PM 75.9 °F - 66.0 °F 71% 30.01 in 10.0 mi NNE 19.6 mph 29.9 mph N/A   Scattered Clouds
8:56 PM 75.9 °F - 66.0 °F 71% 30.01 in 10.0 mi NNE 20.7 mph 27.6 mph N/A   Overcast
9:56 PM 75.0 °F - 64.9 °F 71% 30.02 in 10.0 mi NNE 21.9 mph 29.9 mph N/A   Partly Cloudy
10:56 PM 75.0 °F - 64.9 °F 71% 30.03 in 10.0 mi NNE 20.7 mph 29.9 mph N/A   Clear
11:56 PM 73.9 °F - 66.0 °F 76% 30.03 in 10.0 mi NNE 20.7 mph 25.3 mph N/A   Partly Cloudy